Weather History for Crestview, FL

Change the Weather History Date:

Sunday, April 21, 2013

  Actual Average Record
Temperature  
Mean Temperature 56 °F -  
Max Temperature 77 °F 79 °F 89 °F (2006)
Min Temperature 37 °F 55 °F 37 °F (2013)
Degree Days  
Heating Degree Days 9    
Growing Degree Days 6 (Base 50)    
Moisture  
Dew Point 43 °F    
Average Humidity 61    
Maximum Humidity 93    
Minimum Humidity 30    
Precipitation  
Precipitation 0.00 in - - ()
Sea Level Pressure  
Sea Level Pressure 30.19 in    
Wind  
Wind Speed 3 mph (ENE)    
Max Wind Speed 12 mph    
Max Gust Speed 22 mph    
Visibility 10 miles    
Events      
Averages and records for this station are not official NWS values.
T = Trace of Precipitation, MM = Missing Value Source: NWS Daily Summary

Daily Weather History Graph

Daily Weather History Graph

Search for Another Location

Airport:

Trip Planner

Search our weather history database for the weather conditions in past years. The results will help you decide how hot, cold, wet, or windy it might be!

Date:

Astronomy

Apr. 21, 2013 Rise Set
Actual Time 6:11 AM CDT 7:18 PM CDT
Civil Twilight 5:46 AM CDT 7:43 PM CDT
Nautical Twilight 5:16 AM CDT 8:13 PM CDT
Astronomical Twilight 4:46 AM CDT 8:43 PM CDT
Moon 3:18 PM CDT (4/21) 3:15 AM CDT (4/21)
Length of Visible Light 13h 56m
Length of Day
13h 06m
Waxing Gibbous, 80% of the Moon is Illuminated
Apr 21
Waxing Gibbous
Apr 25
Full
May 2
Last Quarter
May 9
New
May 17
First Quarter

Hourly Weather History & Observations

Time (CDT) Temp. Windchill Dew Point Humidity Pressure Visibility Wind Dir Wind Speed Gust Speed Precip Events Conditions
12:53 AM 43.0 °F - 39.9 °F 89% 30.22 in 10.0 mi Calm Calm - N/A   Clear
1:53 AM 42.1 °F - 39.0 °F 89% 30.20 in 9.0 mi Calm Calm - N/A   Clear
2:53 AM 39.9 °F - 37.9 °F 93% 30.20 in 9.0 mi Calm Calm - N/A   Clear
3:53 AM 39.9 °F - 37.0 °F 89% 30.19 in 9.0 mi Calm Calm - N/A   Clear
4:53 AM 37.9 °F - 36.0 °F 93% 30.19 in 10.0 mi Calm Calm - N/A   Clear
5:53 AM 39.0 °F 36.8 °F 37.0 °F 93% 30.21 in 10.0 mi ENE 3.5 mph - N/A   Clear
6:53 AM 43.0 °F 40.3 °F 39.9 °F 89% 30.21 in 10.0 mi ENE 4.6 mph - N/A   Clear
7:53 AM 50.0 °F - 44.1 °F 80% 30.23 in 10.0 mi ENE 4.6 mph - N/A   Clear
8:53 AM 57.9 °F - 48.0 °F 70% 30.23 in 10.0 mi ENE 5.8 mph - N/A   Clear
9:53 AM 64.9 °F - 48.0 °F 54% 30.23 in 10.0 mi ENE 6.9 mph - N/A   Clear
10:53 AM 68.0 °F - 43.0 °F 40% 30.22 in 10.0 mi East 11.5 mph 21.9 mph N/A   Clear
11:53 AM 71.1 °F - 45.0 °F 39% 30.22 in 10.0 mi East 10.4 mph - N/A   Clear
12:53 PM 72.0 °F - 43.0 °F 35% 30.20 in 10.0 mi East 4.6 mph 18.4 mph N/A   Clear
1:53 PM 73.9 °F - 44.1 °F 34% 30.18 in 10.0 mi ESE 10.4 mph - N/A   Clear
2:53 PM 73.9 °F - 44.1 °F 34% 30.16 in 10.0 mi ENE 4.6 mph - N/A   Clear
3:53 PM 75.9 °F - 42.1 °F 30% 30.14 in 10.0 mi NE 10.4 mph 16.1 mph N/A   Clear
4:53 PM 75.9 °F - 42.1 °F 30% 30.14 in 10.0 mi NNE 6.9 mph - N/A   Clear
5:53 PM 73.9 °F - 42.1 °F 32% 30.14 in 10.0 mi ENE 9.2 mph - N/A   Clear
6:53 PM 70.0 °F - 43.0 °F 38% 30.15 in 10.0 mi ENE 4.6 mph - N/A   Clear
7:53 PM 61.0 °F - 46.0 °F 58% 30.16 in 10.0 mi Calm Calm - N/A   Clear
8:53 PM 55.9 °F - 46.9 °F 72% 30.17 in 10.0 mi Calm Calm - N/A   Clear
9:53 PM 54.0 °F - 46.9 °F 77% 30.17 in 10.0 mi Calm Calm - N/A   Clear
10:53 PM 61.0 °F - 44.1 °F 54% 30.16 in 10.0 mi NE 4.6 mph - N/A   Overcast
11:53 PM 61.0 °F - 44.1 °F 54% 30.15 in 10.0 mi Calm Calm - N/A   Mostly Cloudy